New Bedford Regional Airport
KEWB : now visible

Airfield :











YOU CAN JOIN US ON...

 
LOGIN :

Register | Disclaimer

   EN    FR    IT 

 









Legend :    VFR   Marginal VFR   IFR   Intensive IFR   Very Intensive IFR
Visi :
Ceiling :
>= 8 km
>= 3000ft
5 to 8 km
1000 to 3000 ft
1500m to 5 km
500 to 1000 ft
800 to 1500m
200 to 500 ft
< 800m
< 200 ft
Symbols :   Thunderstorms  Fog  Heavy snow  Heavy precipitations  Wind > 20 kt






- Airport Elevation : 80 ft
- IATA code : EWB


KEWB - New Bedford Regional

CURRENT METAR :
  • 291753Z 22011G18KT 3SM BR OVC004 20/19 A3002 RMK AO2 SLP165 60000 T02000189 10200 20172 58015

EXPIRED METARs :
  • 291700Z 21013KT 3SM BR OVC004 19/19 A3003 RMK AO2 T01940189
  • 291653Z 23010KT 2SM BR OVC004 19/19 A3004 RMK AO2 SLP171 T01940189
  • 291553Z 22013KT 2SM BR OVC003 18/18 A3005 RMK AO2 RAE1458 SLP176 P0000 T01830183
  • 291510Z 21010KT 2SM BR OVC004 18/18 A3006 RMK AO2 RAE1458 P0000 T01830183
  • 291453Z 21012KT 2SM -RA BR OVC005 19/18 A3006 RMK AO2 RAE1358B20 SLP179 P0000 60000 T01890183 58009

TAF N/A
KZBW FIR / North America



MET'MAP, your aeronautical weather chart ! - Copyright ORBIFLY December 2007 - Disclaimer

ORBIFLY MET'MAP TEAM :

Programming & Development : Alexandra Zaïnal
Concept & original design : Baudouin d'Aumeries
Assistance for programming : Marc-Olivier Méhu
Technical & hardware support : Manuel Goepfert

Contact : metmap@orbifly.com




SOURCES & CREDITS :

   NOAA       Earth
Advisory